Preview of NWS' New Version of Forecast
This preview is not operational and should not be used for support decisions.

Regional Weather Roundup (RWR)

Issued by National Weather Service (NWS)

                            
000
ASPQ40 PGUM 240610
RWRPQ 
WEATHER ROUNDUP FOR THE MARIANAS AND MICRONESIA
NATIONAL WEATHER SERVICE TIYAN GU
400 PM CHST MON JUN 24 2019

GUZ001>004-240700-
MARIANA ISLANDS-
  
CITY           SKY/WX    TMP DP  RH WIND       PRES   REMARKS
GUAM AIRPORT   SUNNY     88  75  66 E10       29.88F HX  97           
ANDERSEN AFB   PTSUNNY   84  75  74 E15G23    29.89S HX  92           
ROTA AIRPORT   MOSUNNY   84  75  74 E17       29.87F HX  92           
TINIAN AP      MOSUNNY   90  77  66 E17       29.87F HX 102           
SAIPAN AP      MOSUNNY   88  75  66 E17       29.88F HX  97           

$$

PMZ161-240700-
REPUBLIC OF PALAU-
  
CITY           SKY/WX    TMP DP  RH WIND       PRES   REMARKS
KOROR AP       PTSUNNY   86  75  70 SW8       29.80F HX  95           
KOROR WSO      NOT AVBL                                               

$$

PMZ171>174-240700-
FEDERATED STATES OF MICRONESIA-
  
CITY           SKY/WX    TMP DP  RH WIND       PRES   REMARKS
YAP AIRPORT    PTSUNNY   88  77  70 VRB5      29.83R HX 100           
CHUUK AP       CLOUDY    84  79  84 NE9       29.79F HX  96           
POHNPEI AP     NOT AVBL                                               
POHNPEI WSO    CLOUDY    82  77  83 NE7       29.84S HX  91           
KOSRAE AP      NOT AVBL                                               

$$

PMZ181-240700-
REPUBLIC OF THE MARSHALL ISLANDS-
  
CITY           SKY/WX    TMP DP  RH WIND       PRES   REMARKS
KWAJALEIN AP   PTSUNNY   82  81  94 NE12      29.85S HX  95           
MAJURO AP      NOT AVBL                                               
MAJURO WSO     CLOUDY    81  77  89 CALM      29.84R                  

$$